Torna al catalogo

ISS

DESTINY

AttivoScienzaVLEO
NORAD 26700·PAYLOAD·🇺🇸 United States

Lanciato Feb 7, 2001 da Cape Canaveral Space Force Station

Loading…

Prossimi Passaggi (prossime 24 ore)

TLE

AggiornatoSource: Space-Track

Epoca: Sep 14, 2026, 08:04 UTC

1 26700U 01006B   26257.33674862  .00004921  00000-0  97059-4 0  9993
2 26700  51.6309 218.8707 0004933 140.1115 220.0237 15.49109585586424

Traccia ISS in tempo reale con AllMySat

Download on the App Store